Flag for Australia Weather past 2 weeks in Hobart, Tasmania, Australia

Now
41 °F

Passing clouds.


Feels Like: 33 °F
Forecast: 34 / 51 °F
Wind: 14 mph from Northwest

Location: Hobart Airport

Current Time: Aug 3, 2015 at 10:31:23 AM

Latest Report: Aug 3, 2015 at 10:00 AM


Visibility: N/A

Pressure: 29.56 "Hg

Humidity: 61%

Dew point: 28 °F

Location of HobartLocation

Historic Weather in Hobart — Graph

°F

Hobart temperature yesterday

Maximum temperature yesterday: 55 °F (at 11:00 AM)
Minimum temperature yesterday: 37 °F (at 11:00 PM)
Average temperature yesterday: 45 °F

Past Weeks' High & Low Weather Summary

 TemperatureHumidityPressure
High59 °F (Jul 22, 11:00 AM)93% (Jul 24, 12:30 AM)30.39 "Hg (Jul 24, 12:30 AM)
Low34 °F (Jul 24, 4:30 AM)37% (Aug 1, 12:30 PM)29.27 "Hg (Jul 26, 10:00 AM)
Average48 °F62%29.88 "Hg
* Reported Jul 19 9:00 AM — Aug 3 9:30 AM, Hobart, Weather by CustomWeather, © 2015

Note: Actual official high and low records may vary slightly from our data, if they occured in-between our weather recording intervals... More about our weather records

Advertising

Hobart weather history for previous 24 hours

 ConditionsComfort  
Time TempWeatherWind HumidityBarometerVisibility
9:30 AM
Mon, Aug 3
41 °FPassing clouds.17 mph66%29.56 "HgN/A
9:00 AM37 °FPassing clouds.10 mph75%29.53 "HgN/A
8:30 AM37 °FPassing clouds.18 mph70%29.53 "HgN/A
8:00 AM36 °FScattered clouds.10 mph81%29.53 "HgN/A
7:30 AM36 °FScattered clouds.16 mph81%29.50 "HgN/A
7:00 AM34 °FSnow flurries. Scattered clouds.17 mph87%29.50 "Hg4 mi
6:30 AM36 °FScattered clouds.17 mph81%29.47 "HgN/A
6:00 AM36 °FSnow flurries. Passing clouds.10 mph81%29.45 "HgN/A
5:30 AM36 °FScattered showers. Partly cloudy.17 mph81%29.45 "HgN/A
5:00 AM36 °FPassing clouds.12 mph87%29.42 "HgN/A
4:45 AM36 °FSnow flurries. Partly cloudy.7 mph93%29.42 "HgN/A
4:30 AM37 °FSprinkles. Partly cloudy.10 mph81%29.45 "Hg4 mi
4:00 AM37 °FSnow flurries. Partly cloudy.15 mph81%29.42 "HgN/A
3:30 AM37 °FPassing clouds.10 mph81%29.39 "HgN/A
3:00 AM37 °FSprinkles. Partly cloudy.13 mph81%29.39 "HgN/A
2:30 AM37 °FPassing clouds.10 mph81%29.39 "HgN/A
2:00 AM37 °FPassing clouds.13 mph81%29.39 "HgN/A
1:30 AM39 °FPassing clouds.21 mph81%29.36 "HgN/A
1:00 AM37 °FPassing clouds.16 mph87%29.36 "HgN/A
12:30 AM39 °FPassing clouds.17 mph81%29.36 "HgN/A
12:00 AM39 °FSnow flurries. Partly cloudy.17 mph81%29.39 "HgN/A
11:30 PM
Sun, Aug 2
39 °FPassing clouds.12 mph81%29.36 "HgN/A
11:00 PM37 °FPartly cloudy.13 mph87%29.36 "HgN/A
10:30 PM39 °FScattered showers. Passing clouds.12 mph81%29.36 "HgN/A
10:00 PM39 °FRain showers. Passing clouds.22 mph81%29.39 "Hg5 mi
9:30 PM41 °FScattered showers. Passing clouds.20 mph66%29.36 "HgN/A
9:00 PM41 °FSprinkles. Partly cloudy.16 mph66%29.39 "HgN/A
8:30 PM41 °FPartly cloudy.17 mph61%29.39 "HgN/A
8:00 PM41 °FPassing clouds.15 mph66%29.42 "HgN/A
7:30 PM41 °FPassing clouds.14 mph70%29.42 "HgN/A
7:00 PM41 °FPassing clouds.10 mph70%29.42 "HgN/A
6:30 PM41 °FPassing clouds.18 mph66%29.42 "HgN/A
6:00 PM41 °FPassing clouds.15 mph70%29.42 "HgN/A
5:30 PM41 °FPassing clouds.12 mph70%29.42 "HgN/A
5:00 PM41 °FPassing clouds.17 mph66%29.42 "HgN/A
4:30 PM43 °FPassing clouds.18 mph57%29.39 "HgN/A
4:00 PM43 °FPassing clouds.18 mph66%29.39 "HgN/A
3:30 PM43 °FSprinkles. Broken clouds.17 mph66%29.39 "HgN/A
3:00 PM45 °FScattered clouds.16 mph61%29.39 "HgN/A
2:30 PM45 °FPartly sunny.24 mph61%29.39 "HgN/A
2:00 PM45 °FSprinkles. Partly sunny.21 mph71%29.39 "HgN/A
1:30 PM46 °FBroken clouds.18 mph71%29.36 "HgN/A
1:00 PM46 °FSprinkles. Partly sunny.31 mph76%29.33 "HgN/A
12:30 PM54 °FSprinkles. Broken clouds.22 mph47%29.33 "HgN/A
12:00 PM55 °FSprinkles. Partly sunny.17 mph38%29.33 "HgN/A
11:30 AM54 °FPartly sunny.22 mph44%29.33 "HgN/A
11:00 AM55 °FPassing clouds.22 mph41%29.36 "HgN/A
10:30 AM52 °FPassing clouds.20 mph50%29.39 "HgN/A
10:00 AM52 °FPassing clouds.22 mph47%29.39 "HgN/A
Weather by CustomWeather, © 2015

See weather overviewHow to use our weather pages